{"data":{"norad_id":65239,"epoch":"2026-05-25T02:49:16.124736Z","epoch_age_seconds":71661,"freshness":"FRESH","line1":"1 65239U 25179E   26145.11754774  .00001890  00000+0  13501-3 0  9993","line2":"2 65239  97.4527 187.8544 0001784 135.3039 224.8332 15.05653038 43313","mean_motion":15.05653038,"eccentricity":0.0001784,"inclination_deg":97.4527,"raan_deg":187.8544,"arg_perigee_deg":135.3039,"mean_anomaly_deg":224.8332,"bstar":0.00013501,"rev_number":4331,"period_min":95.639563940494,"perigee_km":548.26594452276,"apogee_km":550.73772605919,"semimajor_km":6927.638835291,"source":"CELESTRAK","updated_at":"2026-05-25T13:38:20.724660Z"}}